Погода в Пробе

Россия / Санкт-Петербург и Ленинградская область     60°05′55″N   30°46′54″E
темп.,
°C
ветер,
м/с
пор.,
м/с
влажн.,
%
обл.,
%
осадки,
мм/ч
давл.,
гПа
погр.,
м
25 июля, вс
вс2500:00+12зюз257190 0.0 101789
03:00+14юз2755100 0.0 1017184
06:00+15юз3951100 0.0 1016302
09:00+19зюз485250 0.0 1017698
12:00+23з564426 0.0 10171762
15:00+24з553956 0.0 10171716
18:00+22з45436 0.0 1018878
21:00+17з24615 0.0 101982
26 июля, пн
пн2600:00+15з236792 0.0 102063
03:00+17юз2565100 0.0 1020114
06:00+17з136392 0.0 1020115
09:00+23зюз34451 0.0 1020485
12:00+27з44367 0.0 10201794
15:00+28з443447 0.0 10202025
18:00+27з32365 0.0 10191341
21:00+20зсз226228 0.1 102016
27 июля, вт
вт2700:00+17зюз11675 0.1 102011
03:00+16зюз11682 0.1 102111
06:00+17юз11650 0.0 102111
09:00+25ююз12430 0.0 1020429
12:00+30юз11315 0.0 10192152
15:00+31вюв122663 0.0 10173234
18:00+28в353454 0.0 1017606
21:00+22вюв26572 0.0 1016111
28 июля, ср
ср2800:00+18в22657 0.0 101618
03:00+17ююв22709 0.0 101516
06:00+18юв22704 0.0 101355
09:00+26юв234336 0.0 1011403
12:00+29вюв343152 0.0 10102294
15:00+30вюв4431100 0.0 10072792
18:00+26вюв575165 0.3 1007736
21:00+20ю3784100 1.7 1006212
29 июля, чт
чт2900:00+17ююз2697100 0.1 1005152
03:00+17ююз2698100 0.1 1004151
06:00+18ююз389697 0.6 1003331
09:00+20юз478478 0.7 1002697
12:00+23зюз5861100 0.3 10021441
15:00+24зюз5105634 2.2 10011721
18:00+22з614600 1.4 10011625
21:00+19з715610 1.5 10011293